Current Weather Conditions: station 62157

sailwx.info

Wind from 220

Wave height 3.0 meters (9 feet)

Air temperature 7.6° C
Visibility: greater than 5.4 NM
Dewpoint 5.0° C

Last reported at 2020-Jan-26 00:00 UTC.
Time now 2020-Jan-26 01:39 UTC

Location: N 58°12' E 000°12'.
View on Google Maps.

See reports from other nearby stations

  
Tides and Currents Weather Stations Pressure Air Temp Water Temp Dewpoint Dewpoint Depression Visibility Wind Speed Wind Dir Waves Ship Positions
date/time (UTC)wind fromknots sea level pressurealtimeterstation pressurevisibilityair tempwater tempwave heightnotes
2020-Jan-26 00:00 220 5.4 7.6 3.0
2020-Jan-25 23:00 220 5.4 7.6 2.7
2020-Jan-25 22:00 220 5.4 7.6 2.7
2020-Jan-25 21:00 230 5.4 7.4 2.7
2020-Jan-25 20:00 230 5.4 7.4 2.7
2020-Jan-25 19:00 230 5.4 7.4 2.6
2020-Jan-25 18:00 230 5.4 7.4 2.7
2020-Jan-25 17:00 230 5.4 7.2 3.0
2020-Jan-25 16:00 220 5.4 7.1 3.1
2020-Jan-25 15:00 230 5.4 7.4 2.8
2020-Jan-25 14:00 220 10.8 7.3 2.7
2020-Jan-25 13:00 220 5.4 7.2 2.6
2020-Jan-25 12:00 220 5.4 7.3 2.7
2020-Jan-25 11:00 220 5.4 7.4 2.5
2020-Jan-25 10:00 220 5.4 7.4 2.6
2020-Jan-25 09:00 220 5.4 7.5 2.6
2020-Jan-25 08:00 220 5.4 7.8 2.0
2020-Jan-25 07:00 220 5.4 7.8 1.9
2020-Jan-25 06:00 210 5.4 7.7 2.0
2020-Jan-25 05:00 220 5.4 7.7 1.8
2020-Jan-25 04:00 200 5.4 7.3 1.8
2020-Jan-25 03:00 210 5.4 7.4 1.8
2020-Jan-25 02:00 200 5.4 7.5 2.4
2020-Jan-25 01:00 210 5.4 7.5 2.4
2020-Jan-25 00:00 220 5.4 7.5 2.6
2020-Jan-24 23:00 230 5.4 7.4 2.1
2020-Jan-24 22:00 240 5.4 7.5 2.2
2020-Jan-24 21:00 250 10.8 7.4 2.1
2020-Jan-24 20:00 260 10.8 7.2 2.1
2020-Jan-24 19:00 260 10.8 7.0 2.3
2020-Jan-24 18:00 270 10.8 7.0 2.3
2020-Jan-24 17:00 280 10.8 7.0 2.3
2020-Jan-24 16:00 290 5.4 6.9 2.7
2020-Jan-24 15:00 280 10.8 6.9 2.6
2020-Jan-24 14:00 280 27.0 7.0 2.8
2020-Jan-24 13:00 290 5.4 6.7 3.0
2020-Jan-24 12:00 280 5.4 7.0 3.2
2020-Jan-24 11:00 290 5.4 6.8 2.7
2020-Jan-24 10:00 280 5.4 7.3 2.6
2020-Jan-24 09:00 290 5.4 7.1 2.4
2020-Jan-24 08:00 300 5.4 7.3 2.4
2020-Jan-24 07:00 300 10.8 7.4 2.2
2020-Jan-24 06:00 290 10.8 7.4 2.2
2020-Jan-24 05:00 290 5.4 7.6 2.2
2020-Jan-24 04:00 290 5.4 7.4 2.0
2020-Jan-24 03:00 290 5.4 7.7 2.1
2020-Jan-24 02:00 300 1.1 7.0 1.9
2020-Jan-24 01:00 270 1.1 7.8 1.9